Location: Newark
(57.7279°N, 5.6916°W)
Time: 04:57:28
(UTC+00:00)

N. Korean satellite - Pass Details

Date: 10 December 2019
Orbit: 454 x 507 km, 97.2° (Epoch: 25 January)

Event Time Altitude Azimuth Distance (km) Brightness Sun altitude
Rises 06:30:52 0° 15° (NNE) 2,577 10.2 -17.2°
Reaches altitude 10° 06:32:58 10° 16° (NNE) 1,681 9.3 -16.9°
Maximum altitude 06:36:35 81° 104° (ESE) 492 6.6 -16.5°
Drops below altitude 10° 06:40:06 10° 193° (SSW) 1,636 9.3 -16.0°
Sets 06:42:07 0° 194° (SSW) 2,500 10.2 -15.8°
